Skip to main content Skip to accessibility
This website is not compatible with your web browser. You should install a newer browser. If you live in Jersey and need help upgrading call the States of Jersey web team on 440099.
Homegov.je

Information and public services for the Island of Jersey

L'înformâtion et les sèrvices publyis pouor I'Île dé Jèrri

  • Choose the service you want to log in to:

  • gov.je

    Update your notification preferences

  • one.gov.je

    Access government services

  • CAESAR

    Clear goods through customs or claim relief

  • Talentlink

    View or update your States of Jersey job application

CI Airfield TAFs

JERSEY - EGJJ

EGJJ 191101Z 1912/1921 20016KT 9999 FEW010 BKN013 TEMPO 1912/1918 21018G30KT SCT015 BKN020 BECMG 1916/1918 18022G32KT PROB30 TEMPO 1918/1921 6000 -RADZ BKN005=

GUERNSEY - EGJB

EGJB 191101Z 1912/1921 20018KT 9999 FEW008 BKN012 TEMPO 1912/1916 21020G32KT SCT015 BKN020 BECMG 1916/1918 19023G35KT TEMPO 1917/1921 5000 -RADZ BKN005 PROB30 TEMPO 1918/1921 3000 DZ BR BKN002=

ALDERNEY - EGJA

EGJA 191101Z 1912/1921 20018KT 9999 FEW008 BKN012 TEMPO 1912/1916 21020G32KT SCT015 BKN020 BECMG 1916/1918 19025G35KT TEMPO 1917/1921 5000 -RADZ BKN005 PROB30 TEMPO 1918/1921 3000 DZ BR BKN002=

​Apologies to the disruption to normal service. Commercial Aviation Services are available from the Jersey Met Forecaster 01534 448765.

Back to top
rating button